GFSNIL_850_temp_000.txt.gz
Temp
10 9 8 7 6 5 5 4 4 3 2 2 2 2 1 1 1 1 0 1 1 1
10 8 7 6 5 4 4 2 2 1 1 1 1 0 0 -0 -0 -0 -0 -0 -0 0
9 7 6 4 3 2 2 0 -0 0 -0 0 0 -0 -0 -1 -1 -1 -1 -1 -1 -1
7 5 4 3 2 0 -1 -2 -2 -1 0 -0 -0 -1 -1 -1 -1 -2 -1 -1 -1 -1
4 3 2 1 0 -1 -2 -2 -1 -1 -1 -1 -1 -2 -2 -2 -2 -2 -2 -2 -2 -2
2 1 1 0 -0 -1 -1 -1 -1 -1 -2 -2 -2 -2 -3 -3 -3 -3 -3 -3 -3 -3
1 1 0 -1 -2 -2 -1 -2 -2 -2 -2 -3 -3 -3 -3 -3 -3 -4 -4 -4 -4 -4
1 0 -1 -2 -2 -1 -2 -2 -2 -3 -3 -3 -3 -4 -4 -4 -4 -4 -5 -5 -5 -5
-1 -1 -2 -2 -1 -2 -2 -2 -3 -3 -4 -4 -4 -4 -5 -5 -5 -6 -7 -7 -8 -8
-2 -2 -1 -1 -2 -2 -2 -3 -3 -4 -4 -5 -5 -6 -6 -6 -7 -7 -8 -8 -9 -9
-1 -1 -2 -2 -2 -3 -3 -4 -4 -5 -5 -6 -6 -7 -7 -8 -8 -8 -8 -8 -8 -9
-1 -1 -2 -2 -3 -3 -4 -5 -5 -6 -6 -7 -8 -8 -8 -8 -8 -8 -8 -8 -7 -8
-1 -2 -3 -3 -4 -5 -5 -5 -6 -6 -8 -8 -9 -9 -8 -8 -8 -8 -7 -8 -8 -8
-2 -3 -3 -4 -5 -5 -6 -6 -7 -7 -8 -9 -9 -9 -9 -9 -9 -9 -9 -9 -9 -8

GFSNIL_850_temp_003.txt.gz
Temp
11 11 11 11 10 9 8 6 5 5 4 3 3 2 1 -1 1 1 1 0 0 0
11 10 10 9 7 6 5 4 4 3 2 2 1 -0 0 0 0 0 -0 -0 -0 -0
9 8 8 6 5 4 4 3 1 -0 -0 -1 -1 -0 0 0 -0 -1 -1 -1 -1 -1
8 7 6 4 4 3 2 1 0 0 -1 -1 -1 -1 -1 -1 -1 -1 -1 -1 -1 -1
6 5 4 3 2 2 1 0 -0 -1 -1 -1 -1 -1 -1 -2 -2 -2 -2 -2 -2 -2
4 3 2 1 1 0 0 0 -0 -1 -1 -1 -1 -2 -2 -3 -3 -3 -3 -3 -3 -3
3 2 1 1 -0 -0 -0 -1 -1 -1 -2 -2 -2 -3 -3 -3 -3 -4 -4 -4 -4 -4
1 1 0 -0 -1 -1 -1 -1 -2 -2 -2 -2 -3 -3 -4 -4 -4 -4 -4 -4 -4 -4
1 1 0 -1 -1 -1 -1 -2 -2 -2 -3 -3 -4 -4 -5 -5 -5 -6 -6 -6 -6 -6
1 -1 -1 -2 -1 -1 -1 -2 -2 -3 -4 -5 -5 -5 -6 -6 -7 -7 -7 -8 -8 -8
-1 -1 -1 -1 -1 -1 -2 -3 -3 -4 -5 -5 -6 -6 -7 -8 -9 -9 -9 -8 -8 -8
-0 -0 -1 -1 -2 -3 -3 -4 -5 -6 -6 -6 -7 -8 -8 -9 -9 -9 -9 -8 -8 -8
-0 -1 -2 -3 -3 -4 -5 -5 -6 -7 -7 -7 -8 -8 -9 -10 -9 -9 -9 -9 -9 -9
-2 -2 -3 -4 -4 -5 -6 -7 -7 -7 -8 -8 -9 -10 -10 -10 -10 -10 -10 -10 -9 -9

GFSNIL_850_temp_006.txt.gz
Temp
10 10 10 10 9 9 7 6 5 4 3 2 2 2 0 -0 -0 -0 0 1 1 0
9 9 8 8 8 7 5 4 3 3 2 0 -0 -0 0 -0 -0 -0 0 0 -0 -1
7 7 7 7 6 4 4 3 3 1 -1 -0 -1 -1 -1 -1 -1 -1 -1 -1 -1 -1
6 6 6 5 4 3 3 3 1 1 0 0 -0 -1 -1 -1 -1 -1 -2 -2 -2 -2
5 5 4 3 3 2 1 1 0 0 -0 -1 -1 -1 -1 -2 -2 -2 -3 -3 -3 -3
4 3 3 2 2 2 1 0 0 -0 -1 -1 -2 -2 -2 -3 -3 -3 -3 -4 -4 -4
2 2 1 1 0 0 -0 -0 -0 -1 -1 -2 -2 -2 -3 -3 -4 -4 -4 -4 -4 -5
1 1 0 -0 -1 -1 -1 -1 -1 -2 -2 -2 -3 -3 -4 -4 -5 -5 -5 -5 -5 -5
-0 -1 -1 -1 -2 -1 -2 -1 -1 -2 -2 -3 -3 -4 -5 -5 -6 -6 -6 -6 -6 -7
-1 -1 -1 -1 -2 -2 -2 -2 -2 -3 -3 -4 -5 -6 -6 -6 -7 -7 -7 -8 -8 -8
-1 -2 -2 -2 -2 -2 -2 -2 -3 -4 -5 -6 -6 -7 -7 -8 -8 -8 -9 -9 -9 -9
-2 -3 -3 -3 -2 -3 -3 -4 -4 -5 -6 -7 -7 -8 -8 -8 -9 -9 -9 -9 -9 -9
-2 -3 -3 -3 -4 -4 -5 -5 -6 -7 -7 -8 -8 -8 -8 -9 -10 -10 -10 -9 -9 -9
-2 -3 -3 -4 -5 -5 -6 -6 -7 -8 -8 -8 -9 -9 -9 -9 -10 -10 -9 -9 -9 -9

GFSNIL_850_temp_012.txt.gz
Temp
7 6 6 6 6 6 5 5 5 5 4 3 1 0 -1 -1 -1 -1 -1 -1 -1 -1
6 6 6 6 5 5 5 4 4 2 1 -0 -0 -1 -0 -1 -1 -1 -3 -3 -4 -3
5 4 4 4 4 3 3 3 1 0 1 1 1 0 -0 -1 -1 -2 -2 -2 -2 -2
4 4 4 3 2 2 1 0 1 0 -1 -1 -0 -1 -1 -2 -2 -2 -2 -2 -2 -2
3 3 2 2 1 -0 -0 -0 -1 -2 -2 -2 -2 -1 -1 -2 -2 -2 -3 -3 -3 -3
3 2 1 0 -0 -1 -1 -2 -2 -2 -3 -2 -2 -2 -2 -2 -3 -3 -3 -3 -4 -4
1 0 -0 -1 -1 -1 -2 -2 -2 -3 -3 -2 -2 -3 -3 -3 -3 -3 -4 -4 -5 -6
-1 -1 -1 -1 -1 -2 -2 -3 -3 -3 -3 -3 -3 -3 -3 -4 -5 -5 -5 -6 -6 -6
-2 -2 -2 -2 -3 -3 -4 -3 -3 -3 -4 -4 -4 -4 -5 -6 -7 -7 -7 -7 -7 -7
-3 -3 -4 -4 -3 -3 -3 -3 -4 -4 -4 -5 -5 -6 -6 -7 -7 -7 -8 -8 -8 -8
-2 -3 -2 -2 -3 -3 -4 -4 -5 -5 -5 -6 -6 -7 -7 -7 -7 -8 -9 -9 -9 -9
-2 -3 -3 -3 -4 -4 -5 -5 -6 -6 -7 -7 -7 -8 -8 -9 -9 -9 -9 -9 -9 -9
-3 -3 -3 -4 -5 -5 -6 -6 -7 -7 -8 -8 -8 -8 -9 -10 -9 -10 -11 -10 -9 -9
-3 -4 -4 -5 -6 -6 -7 -7 -7 -8 -8 -9 -9 -9 -10 -10 -11 -11 -10 -10 -10 -9

GFSNIL_850_temp_015.txt.gz
Temp
6 6 5 5 5 5 5 4 4 4 3 2 1 -0 -1 -1 -1 -1 -1 -2 -2 -2
5 5 5 5 5 5 4 3 2 1 -0 -0 -1 -1 -2 -1 -1 -1 -2 -3 -4 -4
4 4 4 4 4 3 3 1 -0 -0 -1 -1 -2 -2 -2 -1 -1 -1 -2 -2 -2 -3
4 4 3 3 2 2 0 -1 -1 -1 -2 -2 -3 -3 -3 -3 -2 -2 -2 -2 -3 -3
3 2 2 1 1 -0 -1 -1 -1 -2 -2 -2 -3 -3 -3 -2 -2 -3 -3 -3 -3 -3
1 1 0 -0 -1 -2 -2 -2 -2 -2 -3 -3 -3 -4 -3 -3 -3 -3 -3 -3 -4 -4
-0 -1 -1 -2 -2 -2 -2 -2 -2 -3 -3 -3 -3 -3 -4 -4 -4 -4 -4 -4 -5 -6
-1 -2 -2 -2 -3 -3 -3 -3 -3 -3 -3 -3 -4 -4 -4 -4 -5 -5 -5 -6 -6 -7
-2 -2 -2 -2 -2 -3 -3 -3 -3 -4 -4 -4 -5 -5 -5 -6 -7 -7 -7 -8 -9 -8
-2 -2 -2 -3 -3 -3 -3 -4 -4 -5 -5 -5 -5 -6 -7 -7 -7 -8 -8 -9 -9 -10
-3 -3 -3 -3 -4 -4 -4 -5 -5 -5 -6 -7 -7 -7 -8 -8 -8 -9 -10 -10 -10 -10
-3 -3 -3 -4 -4 -5 -5 -6 -6 -7 -7 -8 -8 -8 -9 -9 -11 -11 -11 -10 -10 -10
-4 -4 -4 -4 -5 -6 -6 -7 -7 -8 -8 -9 -9 -9 -9 -10 -11 -11 -11 -11 -10 -10
-4 -4 -4 -5 -6 -6 -7 -7 -8 -8 -9 -9 -9 -9 -10 -10 -11 -11 -11 -11 -10 -10

GFSNIL_850_temp_021.txt.gz
Temp
7 6 6 5 4 3 3 3 3 2 2 2 1 0 -0 -1 -1 -1 -2 -2 -2 -2
6 5 4 3 2 2 2 2 2 2 1 0 -0 -0 -1 -1 -1 -1 -2 -2 -2 -2
5 4 3 2 2 2 1 2 1 1 -0 -1 -1 -1 -2 -2 -2 -2 -2 -2 -2 -2
4 3 2 2 1 1 1 1 1 0 -1 -1 -2 -2 -2 -3 -3 -3 -3 -3 -3 -3
3 2 2 2 0 -0 -0 -1 -1 -1 -1 -2 -2 -3 -4 -4 -4 -4 -4 -3 -3 -3
3 1 0 -0 -1 -1 -1 -1 -1 -2 -2 -3 -3 -3 -3 -3 -3 -3 -3 -3 -3 -3
1 -1 -1 -1 -1 -1 -1 -1 -1 -1 -2 -2 -3 -3 -3 -4 -5 -5 -4 -4 -4 -4
1 -0 -1 -1 -1 -1 -2 -2 -2 -2 -3 -3 -3 -3 -4 -5 -6 -6 -6 -5 -5 -5
0 -1 -2 -2 -2 -2 -2 -2 -3 -3 -3 -3 -4 -4 -5 -6 -6 -7 -7 -6 -6 -5
-1 -1 -2 -2 -2 -2 -3 -3 -3 -4 -4 -4 -5 -5 -6 -6 -7 -8 -8 -7 -6 -6
-1 -2 -2 -2 -2 -3 -3 -3 -4 -4 -4 -5 -5 -7 -7 -7 -8 -9 -8 -8 -8 -7
-2 -2 -2 -2 -3 -3 -3 -4 -4 -5 -6 -7 -7 -8 -8 -9 -10 -10 -10 -10 -9 -9
-1 -2 -2 -3 -3 -3 -4 -4 -5 -6 -7 -8 -8 -9 -9 -10 -11 -11 -11 -10 -10 -10
-2 -3 -3 -3 -3 -3 -4 -5 -6 -7 -7 -8 -8 -9 -9 -10 -11 -11 -11 -11 -10 -10

GFSNIL_850_temp_024.txt.gz
Temp
7 6 6 5 4 4 2 2 2 2 2 2 1 1 0 -0 -1 -1 -1 -2 -2 -2
6 6 5 4 3 2 2 1 2 1 1 0 -0 -0 -1 -1 -1 -1 -2 -2 -2 -2
5 4 4 3 2 2 1 1 1 0 -0 -0 -1 -1 -1 -1 -1 -2 -2 -2 -2 -2
4 4 3 2 2 1 1 1 -0 -1 -1 -1 -1 -2 -2 -3 -3 -3 -3 -3 -3 -3
4 3 3 2 1 -0 -0 -0 -1 -1 -1 -1 -2 -2 -3 -3 -3 -3 -3 -3 -3 -3
3 2 1 0 -1 -1 -1 -1 -1 -1 -1 -2 -2 -2 -3 -3 -3 -3 -3 -4 -4 -4
2 2 0 -0 -1 -1 -1 -1 -1 -2 -2 -2 -3 -3 -3 -3 -3 -4 -4 -5 -5 -5
2 1 0 -0 -1 -2 -2 -2 -2 -2 -3 -3 -3 -3 -4 -4 -5 -5 -5 -6 -6 -7
2 0 -0 -1 -1 -2 -2 -2 -3 -3 -3 -3 -4 -4 -4 -5 -6 -6 -7 -7 -7 -7
2 -0 -1 -1 -2 -2 -2 -3 -3 -3 -4 -4 -5 -5 -6 -6 -7 -8 -8 -9 -9 -8
1 -0 -1 -2 -2 -2 -3 -3 -3 -4 -4 -5 -5 -6 -7 -7 -8 -9 -9 -10 -10 -9
-1 -1 -1 -2 -2 -2 -3 -3 -4 -5 -5 -5 -6 -7 -8 -8 -9 -9 -10 -10 -10 -10
-1 -2 -1 -2 -4 -3 -3 -3 -4 -5 -5 -6 -7 -8 -8 -9 -9 -10 -10 -10 -10 -10
-1 -1 -2 -3 -5 -4 -4 -4 -5 -5 -6 -7 -8 -9 -9 -9 -10 -11 -11 -11 -11 -11

GFSNIL_850_temp_027.txt.gz
Temp
7 6 5 5 4 4 3 2 1 1 1 1 0 0 -0 -0 -1 -2 -1 -1 -1 -2
5 5 4 4 4 3 2 1 1 1 0 -0 -0 -1 -1 -2 -2 -2 -2 -2 -2 -3
5 4 4 4 3 2 1 1 0 -0 -1 -1 -1 -2 -2 -2 -2 -3 -2 -3 -3 -3
5 4 3 3 2 2 2 1 -0 -1 -1 -1 -2 -2 -2 -3 -3 -3 -3 -3 -4 -4
4 4 3 3 2 2 0 -1 -1 -1 -1 -2 -2 -2 -3 -3 -3 -3 -3 -3 -4 -4
4 3 3 2 2 1 -0 -1 -2 -2 -2 -2 -2 -3 -3 -3 -3 -4 -4 -4 -4 -5
3 3 2 2 1 1 -0 -1 -2 -2 -2 -3 -3 -3 -4 -4 -4 -4 -5 -5 -6 -6
3 2 2 1 -0 -1 -1 -2 -2 -2 -3 -3 -4 -4 -4 -4 -4 -5 -6 -6 -7 -7
3 1 0 -1 -1 -3 -2 -2 -2 -3 -3 -4 -4 -4 -5 -5 -6 -6 -7 -7 -8 -8
1 0 0 -1 -2 -3 -2 -2 -3 -3 -4 -4 -5 -5 -5 -6 -7 -7 -8 -9 -9 -9
1 -0 -2 -2 -3 -3 -3 -3 -3 -4 -4 -5 -5 -6 -7 -7 -8 -8 -9 -9 -10 -10
-0 -1 -1 -2 -2 -4 -4 -4 -4 -4 -4 -5 -6 -7 -8 -8 -9 -9 -10 -10 -10 -10
-1 -2 -3 -3 -3 -4 -5 -4 -5 -4 -5 -6 -7 -8 -9 -9 -10 -10 -11 -11 -11 -11
-2 -3 -4 -4 -5 -5 -5 -5 -5 -5 -6 -7 -8 -9 -10 -10 -11 -11 -12 -12 -12 -11

GFSNIL_850_temp_030.txt.gz
Temp
7 6 5 5 5 4 3 2 2 1 1 -0 -1 -1 -1 -1 -2 -2 -2 -2 -3 -3
6 6 5 5 4 3 3 2 2 1 -0 -0 -1 -1 -2 -2 -2 -2 -3 -3 -3 -3
6 6 5 5 4 3 3 2 2 1 0 -1 -1 -2 -2 -2 -3 -3 -3 -3 -4 -4
5 5 4 4 4 3 2 2 2 -0 -1 -1 -2 -2 -2 -3 -3 -3 -3 -3 -4 -4
5 4 4 4 3 2 2 1 1 -1 -2 -2 -2 -2 -3 -3 -3 -4 -4 -4 -4 -5
4 4 3 3 2 2 1 -1 -2 -2 -2 -2 -2 -3 -3 -4 -4 -4 -4 -5 -5 -6
3 3 2 1 1 0 -1 -2 -3 -2 -2 -2 -3 -3 -4 -4 -4 -5 -5 -5 -6 -7
3 2 2 0 -0 -1 -2 -3 -3 -3 -2 -3 -3 -4 -4 -5 -5 -5 -6 -7 -7 -8
2 1 0 -0 -1 -1 -2 -3 -4 -4 -3 -3 -4 -4 -5 -5 -6 -6 -7 -8 -8 -9
1 0 -0 -1 -1 -1 -2 -3 -4 -5 -5 -4 -5 -5 -6 -6 -7 -8 -9 -9 -9 -9
-0 -0 -1 -2 -3 -3 -3 -4 -5 -5 -5 -5 -5 -6 -6 -7 -8 -9 -9 -10 -10 -10
-1 -2 -2 -3 -4 -4 -4 -5 -5 -5 -5 -5 -6 -6 -7 -8 -9 -10 -10 -11 -11 -11
-2 -3 -3 -4 -4 -4 -5 -5 -6 -5 -6 -6 -7 -8 -8 -10 -10 -10 -11 -12 -11 -11
-3 -4 -5 -5 -5 -5 -5 -6 -5 -6 -6 -7 -8 -8 -9 -10 -10 -12 -13 -12 -12 -12

GFSNIL_850_temp_033.txt.gz
Temp
7 6 6 6 5 5 4 4 3 2 2 1 0 -0 -1 -1 -2 -2 -2 -2 -3 -3
6 6 5 5 5 4 3 3 3 2 2 1 -0 -1 -2 -2 -2 -3 -3 -3 -3 -3
5 5 5 4 3 3 3 2 2 1 1 -0 -1 -2 -2 -2 -3 -3 -3 -4 -4 -4
5 4 3 3 3 2 2 1 1 -0 -2 -3 -3 -2 -2 -3 -3 -3 -4 -4 -4 -5
4 3 3 2 2 1 1 0 -0 -1 -1 -2 -3 -3 -3 -3 -4 -4 -4 -5 -5 -5
3 3 3 2 2 1 1 -0 -0 -2 -4 -4 -3 -3 -3 -3 -4 -4 -5 -5 -6 -6
3 2 2 1 0 -0 -1 -1 -2 -2 -3 -3 -4 -4 -4 -4 -5 -5 -6 -6 -6 -7
2 1 1 0 -1 -1 -1 -2 -2 -3 -4 -4 -5 -5 -5 -5 -5 -6 -6 -7 -8 -8
1 0 -0 -1 -1 -2 -3 -3 -4 -4 -4 -5 -5 -5 -5 -6 -6 -6 -7 -8 -9 -9
-0 -1 -1 -2 -2 -3 -3 -4 -4 -5 -6 -5 -6 -6 -6 -6 -7 -8 -9 -9 -10 -10
-1 -1 -2 -2 -3 -3 -4 -5 -4 -5 -5 -6 -6 -6 -6 -7 -8 -9 -9 -10 -10 -11
-2 -2 -3 -3 -4 -4 -5 -5 -5 -5 -6 -6 -6 -7 -8 -9 -9 -9 -9 -10 -11 -11
-3 -4 -4 -4 -5 -5 -5 -5 -6 -6 -6 -7 -7 -8 -9 -9 -9 -9 -10 -11 -11 -11
-4 -4 -4 -5 -5 -5 -5 -6 -6 -7 -7 -7 -8 -9 -9 -10 -10 -11 -12 -12 -12 -12

GFSNIL_850_temp_036.txt.gz
Temp
6 6 5 5 4 3 3 3 2 2 2 1 1 0 -0 -1 -2 -2 -2 -3 -3 -3
5 5 4 4 3 3 2 2 1 1 1 0 -0 -1 -1 -2 -2 -2 -3 -3 -3 -4
5 4 4 3 3 2 2 2 1 0 0 -1 -2 -3 -4 -3 -3 -3 -3 -4 -4 -4
5 4 3 2 2 1 1 1 0 -0 -1 -1 -2 -3 -4 -4 -3 -4 -4 -4 -5 -5
4 3 3 2 1 1 1 0 -1 -1 -1 -2 -2 -3 -4 -5 -4 -4 -4 -5 -5 -5
3 2 1 1 0 -0 -1 -1 -2 -2 -2 -3 -3 -4 -5 -5 -5 -5 -5 -5 -6 -6
2 1 0 0 -0 -1 -1 -2 -3 -3 -4 -4 -4 -5 -5 -5 -5 -6 -6 -6 -7 -7
1 0 -0 -1 -1 -2 -2 -2 -4 -4 -4 -4 -5 -5 -5 -6 -6 -6 -6 -7 -7 -8
0 -0 -1 -2 -2 -2 -3 -3 -4 -4 -4 -5 -6 -6 -6 -6 -6 -6 -7 -7 -8 -9
-1 -1 -2 -2 -3 -3 -3 -3 -5 -5 -5 -6 -6 -6 -6 -6 -7 -7 -8 -8 -9 -10
-2 -2 -2 -3 -3 -4 -4 -5 -5 -6 -6 -6 -6 -6 -7 -7 -7 -8 -8 -9 -10 -11
-2 -3 -3 -4 -4 -5 -6 -6 -5 -6 -6 -6 -7 -7 -7 -8 -8 -8 -9 -10 -11 -12
-3 -4 -4 -5 -5 -5 -6 -6 -6 -6 -7 -7 -7 -8 -9 -9 -9 -9 -9 -10 -11 -12
-5 -5 -5 -5 -6 -6 -6 -6 -7 -7 -7 -8 -8 -9 -9 -10 -10 -10 -11 -12 -12 -12

GFSNIL_850_temp_039.txt.gz
Temp
6 5 5 4 4 3 2 2 2 2 1 1 0 0 -0 -1 -2 -3 -3 -3 -3 -3
5 5 4 4 3 3 2 2 1 1 1 1 0 -0 -1 -1 -2 -3 -3 -3 -3 -4
4 4 4 3 3 2 2 1 1 1 0 -0 -1 -1 -2 -2 -3 -4 -4 -4 -4 -4
4 4 3 3 2 1 1 0 -0 -1 -1 -1 -2 -2 -3 -3 -4 -4 -4 -4 -4 -5
4 3 2 1 1 0 -0 -1 -1 -1 -2 -3 -3 -3 -4 -4 -4 -5 -5 -5 -5 -5
3 2 1 0 -0 -1 -1 -1 -1 -2 -3 -3 -4 -4 -4 -5 -5 -5 -5 -5 -6 -6
2 1 0 -0 -1 -1 -1 -2 -2 -3 -3 -4 -4 -4 -5 -5 -5 -5 -6 -6 -6 -7
1 0 -0 -1 -1 -2 -2 -2 -3 -3 -4 -4 -4 -5 -5 -5 -6 -6 -6 -6 -7 -7
0 -1 -1 -2 -2 -2 -3 -3 -3 -5 -5 -5 -5 -6 -5 -6 -6 -6 -7 -7 -7 -8
-1 -1 -2 -2 -3 -3 -4 -4 -6 -6 -6 -6 -6 -6 -6 -6 -7 -7 -7 -7 -8 -9
-1 -2 -3 -3 -4 -4 -4 -5 -6 -6 -6 -6 -6 -6 -7 -7 -7 -7 -8 -8 -10 -12
-2 -2 -3 -4 -4 -4 -5 -6 -6 -6 -6 -7 -7 -7 -7 -7 -8 -8 -8 -9 -11 -12
-2 -3 -4 -5 -5 -5 -6 -6 -6 -6 -7 -7 -7 -8 -8 -8 -8 -9 -10 -11 -12 -13
-3 -4 -6 -6 -6 -6 -7 -7 -6 -7 -7 -7 -8 -8 -8 -9 -9 -11 -12 -12 -12 -13

GFSNIL_850_temp_042.txt.gz
Temp
6 6 6 5 4 4 3 3 1 1 1 1 0 0 -0 -1 -1 -1 -2 -2 -2 -3
6 6 5 4 4 3 2 2 1 1 1 0 -0 -0 -1 -1 -1 -2 -2 -3 -3 -3
5 5 4 4 2 2 1 1 1 0 -0 -0 -1 -1 -1 -2 -1 -2 -3 -3 -3 -3
4 4 3 2 2 1 0 0 -0 -1 -1 -1 -1 -2 -3 -3 -3 -4 -4 -3 -4 -4
4 3 2 2 1 0 -0 -1 -1 -2 -2 -2 -2 -3 -3 -4 -3 -4 -4 -4 -4 -4
3 2 2 1 0 -1 -1 -2 -2 -2 -2 -2 -3 -4 -4 -4 -4 -4 -4 -5 -5 -5
2 1 1 -0 -1 -2 -2 -2 -3 -3 -3 -3 -4 -4 -4 -4 -5 -5 -5 -5 -6 -6
1 0 -0 -1 -2 -2 -3 -3 -4 -4 -4 -5 -4 -5 -5 -5 -5 -5 -6 -6 -7 -7
0 -0 -1 -2 -2 -3 -3 -4 -4 -5 -5 -5 -5 -5 -5 -6 -6 -6 -7 -7 -8 -8
-0 -1 -2 -2 -3 -3 -4 -4 -5 -5 -6 -6 -6 -6 -6 -6 -7 -8 -8 -8 -8 -9
-1 -2 -2 -3 -4 -4 -4 -5 -6 -6 -6 -6 -7 -6 -6 -7 -8 -8 -9 -9 -9 -9
-2 -3 -3 -4 -4 -4 -6 -6 -6 -6 -6 -7 -7 -6 -7 -7 -8 -9 -9 -10 -10 -10
-3 -3 -4 -4 -5 -5 -6 -6 -6 -6 -7 -7 -7 -7 -7 -7 -9 -10 -10 -10 -10 -11
-3 -4 -4 -5 -5 -6 -6 -6 -7 -7 -7 -7 -8 -8 -8 -8 -8 -10 -10 -10 -10 -11

GFSNIL_850_temp_045.txt.gz
Temp
8 8 7 7 6 5 5 5 4 3 2 2 2 1 1 1 1 0 -1 -1 -1 -1
7 6 6 5 5 5 4 4 3 2 2 1 1 1 1 1 1 -0 -1 -2 -2 -2
6 5 5 4 4 3 3 2 2 1 1 1 0 0 0 0 0 -1 -1 -2 -2 -2
5 5 4 4 4 3 2 2 1 1 0 0 0 0 -0 -2 -2 -2 -2 -3 -3 -3
5 5 4 4 3 2 1 1 0 0 -0 -0 -0 -0 -2 -3 -3 -3 -3 -3 -4 -4
5 4 4 3 2 1 1 0 -0 -1 -1 -1 -1 -2 -3 -3 -3 -3 -4 -4 -4 -4
4 4 3 2 1 1 -0 -1 -1 -1 -2 -2 -3 -3 -3 -4 -4 -4 -4 -5 -5 -5
4 2 2 1 0 -0 -1 -1 -1 -2 -2 -3 -4 -4 -4 -4 -5 -5 -5 -5 -5 -5
3 2 1 0 -0 -1 -1 -2 -2 -2 -3 -5 -4 -4 -5 -5 -5 -5 -5 -5 -6 -6
1 1 0 -0 -0 -1 -2 -2 -2 -4 -5 -5 -5 -5 -5 -5 -6 -6 -6 -6 -7 -7
1 0 -0 -1 -1 -2 -2 -2 -4 -5 -5 -5 -6 -5 -6 -6 -6 -7 -7 -7 -7 -8
0 -0 -1 -1 -2 -2 -3 -4 -5 -5 -5 -6 -6 -6 -6 -6 -7 -7 -7 -8 -8 -8
-1 -1 -1 -2 -2 -3 -3 -5 -5 -5 -6 -6 -6 -6 -7 -7 -7 -9 -8 -8 -8 -9
-1 -1 -2 -2 -3 -3 -4 -5 -5 -5 -6 -7 -6 -7 -7 -8 -8 -9 -9 -9 -9 -9

GFSNIL_850_temp_048.txt.gz
Temp
9 8 8 8 7 7 6 5 5 4 3 3 2 2 1 1 1 1 1 0 -0 -1
8 8 8 7 6 5 5 4 4 3 3 2 1 1 1 0 0 0 -0 -1 -1 -2
7 7 6 5 5 4 4 3 3 2 2 1 1 0 0 0 0 -0 -1 -1 -2 -2
7 5 5 4 4 4 3 2 2 1 1 0 0 -0 -0 -0 -1 -1 -2 -2 -3 -3
6 5 4 5 4 3 2 2 1 0 -0 -0 -1 -1 -1 -2 -2 -2 -3 -3 -4 -4
5 5 4 4 4 3 2 1 0 -0 -1 -1 -2 -2 -2 -2 -3 -3 -4 -4 -4 -4
5 5 4 4 3 2 1 0 -0 -1 -1 -1 -2 -3 -3 -3 -4 -4 -4 -4 -4 -5
5 4 3 2 2 1 0 -0 -1 -1 -1 -2 -3 -3 -4 -4 -4 -5 -5 -5 -5 -5
2 3 2 2 1 0 -0 -1 -1 -2 -2 -2 -3 -4 -5 -5 -5 -5 -5 -5 -6 -6
3 2 1 1 -0 -0 -1 -1 -2 -2 -3 -3 -5 -5 -5 -5 -5 -5 -6 -6 -6 -7
2 1 1 0 -0 -1 -1 -2 -2 -2 -3 -4 -5 -5 -5 -5 -6 -6 -6 -7 -7 -7
1 1 0 -0 -1 -1 -2 -2 -3 -3 -4 -5 -5 -5 -6 -6 -6 -6 -7 -7 -8 -8
0 -0 -1 -1 -1 -2 -2 -3 -3 -4 -5 -5 -6 -6 -6 -6 -7 -7 -7 -8 -8 -8
-0 -1 -1 -1 -2 -2 -3 -3 -4 -4 -5 -5 -6 -6 -6 -7 -7 -8 -8 -8 -8 -9

GFSNIL_850_temp_054.txt.gz
Temp
10 10 10 9 8 7 6 5 5 5 4 3 4 3 3 3 2 1 0 -0 -0 -1
10 10 9 8 6 6 5 4 4 4 3 2 3 3 3 2 2 1 -0 -1 -1 -1
11 10 9 8 7 5 5 5 4 4 3 3 3 3 2 1 0 -1 -1 -1 -2 -2
10 9 7 6 5 4 3 4 2 4 3 3 2 2 1 0 -1 -1 -2 -2 -3 -3
8 7 7 6 4 4 2 1 3 3 2 2 2 1 0 -1 -2 -2 -2 -3 -3 -4
8 6 5 5 3 2 1 3 3 2 2 2 1 -0 -1 -2 -2 -2 -3 -4 -4 -4
7 6 5 4 2 2 2 2 2 2 2 1 -1 -1 -2 -2 -2 -3 -4 -4 -5 -5
6 4 3 2 2 2 2 1 1 1 1 -1 -1 -2 -2 -2 -3 -4 -4 -5 -5 -5
4 3 2 2 2 1 1 1 1 -0 -1 -1 -1 -2 -2 -3 -3 -5 -5 -5 -6 -5
3 3 2 0 -0 0 0 0 -0 -1 -1 -1 -2 -2 -3 -3 -4 -5 -5 -6 -6 -6
2 1 -0 0 -0 -0 0 -0 -1 -1 -1 -2 -2 -3 -3 -4 -5 -5 -6 -6 -6 -6
0 0 0 -1 -0 -0 -0 -1 -1 -2 -2 -2 -3 -3 -4 -4 -5 -6 -6 -6 -6 -7
0 0 0 0 0 -1 -1 -2 -2 -2 -2 -3 -3 -4 -4 -5 -6 -6 -6 -7 -7 -7
0 0 0 -0 -1 -1 -2 -2 -2 -3 -3 -3 -4 -4 -5 -5 -6 -6 -7 -7 -7 -8

GFSNIL_850_temp_057.txt.gz
Temp
11 11 11 10 10 9 8 6 5 4 4 3 3 2 3 3 2 2 1 0 -0 -1
11 10 10 10 9 8 6 6 5 3 2 1 1 2 2 2 1 1 -0 -1 -1 -1
11 10 10 9 9 7 6 4 4 2 1 -0 1 2 2 2 1 0 -1 -1 -1 -1
11 10 9 8 7 7 6 5 3 3 2 1 2 2 2 1 0 -0 -1 -2 -2 -2
10 9 8 7 6 5 5 4 3 2 1 2 2 2 1 0 -0 -1 -2 -2 -2 -3
9 8 7 6 5 5 4 3 1 2 2 2 2 1 0 -0 -1 -2 -2 -3 -4 -4
8 7 6 6 4 3 2 1 2 2 2 1 1 -0 -1 -1 -2 -2 -3 -4 -5 -5
6 5 5 4 2 1 0 1 1 1 0 0 -0 -1 -1 -2 -2 -3 -3 -4 -5 -5
5 4 3 2 2 1 1 0 0 0 -0 -0 -1 -1 -2 -3 -3 -3 -4 -4 -5 -6
3 2 2 1 1 0 0 -1 -1 -0 -0 -1 -1 -2 -2 -3 -3 -4 -4 -5 -6 -6
2 1 1 -0 0 -0 -1 -0 -0 -1 -1 -1 -2 -2 -3 -3 -4 -4 -5 -6 -6 -7
1 0 -0 0 -0 -1 -0 -0 -1 -1 -1 -2 -2 -3 -3 -4 -4 -4 -5 -6 -6 -7
0 0 -0 -0 -0 -0 -0 -1 -1 -1 -1 -2 -3 -3 -3 -4 -5 -5 -5 -6 -6 -7
-0 0 -0 -0 -0 -1 -1 -1 -1 -1 -2 -3 -3 -3 -4 -4 -5 -5 -6 -6 -6 -7

GFSNIL_850_temp_060.txt.gz
Temp
10 10 10 11 10 10 9 8 7 6 5 4 4 3 2 2 2 3 2 1 0 -0
10 11 10 11 10 9 9 9 7 7 5 5 4 3 2 2 2 1 1 0 -0 -1
11 11 11 11 10 9 8 7 6 5 5 4 3 3 2 2 1 1 -0 -1 -1 -2
11 11 11 11 9 8 7 6 5 5 5 3 2 2 1 1 0 -0 -1 -2 -2 -2
12 11 11 11 9 7 6 4 5 4 3 2 1 1 0 0 -0 -1 -1 -2 -2 -2
11 10 10 8 7 6 5 5 3 1 0 1 1 0 0 -1 -1 -1 -2 -2 -2 -3
8 8 6 5 5 4 3 1 -0 0 -0 0 0 -0 -0 -1 -1 -2 -2 -3 -3 -4
6 5 7 4 3 2 2 1 -1 -1 -1 -1 -0 -0 -1 -1 -2 -3 -3 -3 -4 -4
6 5 3 2 2 0 0 -1 1 -0 -1 -1 -0 -1 -1 -2 -2 -3 -3 -4 -4 -5
4 3 1 1 0 0 -0 -0 -0 -1 -0 -1 -1 -1 -2 -2 -3 -3 -4 -4 -4 -5
2 1 0 -0 -1 0 -0 -1 -1 -1 -1 -1 -1 -1 -2 -3 -3 -4 -4 -4 -4 -5
0 -0 -1 -0 0 -0 -1 -0 -1 -1 -1 -1 -1 -2 -3 -3 -3 -4 -4 -5 -5 -5
1 0 -0 -0 -0 -0 -1 -1 -1 -1 -1 -2 -2 -2 -3 -3 -4 -4 -4 -5 -5 -5
-0 -1 -1 -1 -1 -1 -1 -1 -2 -2 -2 -2 -3 -3 -3 -3 -4 -4 -5 -5 -5 -5

GFSNIL_850_temp_063.txt.gz
Temp
12 11 10 9 9 9 9 10 9 8 7 6 5 4 4 3 3 3 2 2 1 1
11 11 10 9 9 9 9 9 8 7 6 4 4 4 5 3 2 2 1 1 1 0
12 11 10 9 9 10 9 8 7 6 6 5 4 3 3 3 2 1 1 0 -0 -1
12 11 10 10 9 8 9 8 7 7 5 4 3 2 1 1 1 0 0 -0 -1 -2
13 12 11 11 9 8 7 6 6 4 4 2 1 2 1 1 0 -0 -0 -1 -2 -2
13 12 10 9 8 7 5 4 3 3 0 0 1 0 0 0 -1 -1 -1 -2 -2 -2
10 8 8 7 6 5 4 3 2 2 1 1 -0 -1 -1 -1 -1 -1 -2 -2 -2 -3
8 7 6 5 5 3 3 2 2 1 1 0 -1 -1 -1 -1 -1 -1 -2 -2 -3 -3
6 5 4 4 3 3 1 0 0 0 -1 -1 -1 -1 -1 -1 -2 -2 -2 -3 -3 -3
4 4 3 2 0 -0 -0 0 -0 -1 -1 -1 -1 -1 -1 -1 -2 -2 -3 -3 -3 -4
3 2 0 -0 -0 0 -0 -0 -0 -0 -1 -1 -1 -1 -1 -2 -2 -3 -3 -3 -4 -4
1 0 0 0 0 -0 -1 -1 -1 -1 -1 -1 -1 -1 -2 -2 -3 -3 -3 -3 -4 -4
1 1 0 -0 -1 -1 -1 -1 -1 -1 -1 -2 -2 -2 -3 -3 -4 -4 -4 -4 -4 -4
0 -0 -0 -1 -1 -1 -1 -1 -1 -2 -2 -2 -3 -3 -3 -4 -4 -5 -5 -5 -5 -5

GFSNIL_850_temp_066.txt.gz
Temp
14 13 12 11 11 11 10 9 9 9 8 8 7 7 6 5 4 4 3 2 1 1
13 13 13 11 10 10 9 8 8 8 8 7 6 6 5 4 3 2 2 0 0 0
13 13 11 10 10 10 9 8 8 7 7 7 5 4 3 3 2 1 -0 0 -0 -0
13 13 11 10 10 9 8 8 6 4 5 5 5 2 2 0 1 0 0 -0 -1 -1
12 11 12 11 10 9 8 8 7 5 5 3 2 1 1 1 -0 -0 -0 -0 -1 -1
11 10 10 9 9 8 7 5 6 4 3 3 2 1 1 -0 -0 -0 -0 -1 -1 -1
10 9 9 9 8 6 6 5 4 3 2 2 1 1 -0 -0 -0 -0 -1 -1 -1 -1
8 8 8 7 6 5 4 3 2 2 1 1 0 0 -0 -1 -1 -1 -1 -1 -2 -2
7 6 6 5 4 3 3 2 2 2 1 1 -0 -0 -1 -1 -2 -1 -1 -1 -1 -2
5 5 4 4 3 2 2 2 2 1 0 -1 -1 -1 -1 -1 -1 -2 -2 -1 -1 -2
4 3 3 2 2 2 1 0 -0 -1 -1 -1 -1 -1 -1 -1 -2 -2 -2 -2 -2 -2
3 2 2 1 1 0 -1 -1 -1 -1 -2 -2 -2 -2 -1 -2 -3 -3 -3 -3 -3 -3
1 1 1 -0 -1 -1 -1 -1 -1 -2 -2 -2 -2 -4 -2 -3 -3 -4 -5 -4 -4 -4
1 0 0 -0 -0 -1 -1 -1 -1 -2 -2 -2 -3 -4 -4 -4 -5 -7 -7 -7 -6 -6

GFSNIL_850_temp_069.txt.gz
Temp
12 12 12 11 10 11 10 10 11 10 8 7 6 6 5 4 5 5 4 4 3 2
12 12 11 11 10 9 9 9 9 9 8 6 5 5 5 5 5 5 3 2 3 1
12 11 11 12 12 11 9 9 8 7 7 5 5 4 4 5 5 3 2 2 1 1
11 11 11 11 10 9 9 9 8 6 5 5 4 4 4 3 2 2 2 1 0 1
11 11 10 10 10 9 9 8 8 6 5 4 4 4 3 2 2 2 1 0 0 1
10 10 10 10 10 9 8 7 6 6 5 5 3 2 2 2 2 1 -0 0 1 1
10 10 10 9 8 8 7 6 6 5 4 3 2 2 2 2 1 0 0 0 0 0
10 9 9 8 8 6 5 5 4 3 2 2 2 2 1 -0 0 -0 0 1 1 0
8 8 7 6 5 5 4 3 2 2 2 2 2 1 0 -0 -0 -1 -1 0 0 0
7 7 6 5 4 3 3 3 3 2 2 1 0 0 -0 -0 -0 -1 -1 -1 -1 -1
5 4 4 4 3 2 2 1 1 1 1 0 0 -0 -1 -1 -1 -1 -2 -2 -1 -1
4 3 3 2 2 1 1 1 1 0 -0 -0 -1 -1 -1 -1 -2 -2 -3 -3 -3 -3
3 2 1 1 1 1 1 0 -0 -1 -1 -2 -2 -3 -3 -2 -2 -3 -4 -4 -5 -5
2 1 1 0 0 -0 -0 -1 -2 -1 -2 -2 -4 -5 -4 -2 -3 -5 -5 -5 -5 -6

GFSNIL_850_temp_072.txt.gz
Temp
14 13 13 13 13 13 12 12 11 11 10 9 9 7 7 6 6 6 6 6 6 6
13 13 13 12 13 13 11 11 10 10 9 8 7 6 6 6 6 5 5 5 4 4
13 13 13 12 13 13 11 10 9 9 9 8 7 6 6 5 5 4 4 4 4 3
13 13 12 12 13 12 10 9 9 8 8 7 7 6 5 4 4 4 3 3 2 2
14 13 11 11 11 10 9 9 8 8 8 7 6 6 5 5 4 3 2 2 2 2
13 14 12 10 10 9 8 8 7 7 6 6 6 5 4 3 2 2 2 2 1 1
13 12 10 9 9 9 8 7 7 6 6 5 4 3 3 2 2 1 1 1 0 1
11 11 9 9 8 8 7 6 5 5 4 4 3 2 2 1 1 0 0 0 1 1
10 9 8 8 8 7 5 5 4 4 3 3 2 2 1 0 0 0 0 0 0 0
8 8 7 6 5 5 4 4 3 2 2 2 1 1 0 0 0 0 0 -0 -0 -1
7 6 5 5 4 4 3 3 2 2 1 1 0 0 -0 -0 -1 -0 -1 -1 -2 -2
4 4 4 4 3 3 2 1 1 1 1 0 -0 -1 -1 -1 -1 -1 -1 -2 -2 -2
4 4 3 3 2 2 1 1 1 0 -0 -1 -1 -1 -1 -1 -1 -2 -2 -2 -3 -3
3 3 2 1 1 1 1 0 0 -0 -0 -1 -2 -2 -2 -2 -2 -3 -3 -3 -3 -4

GFSNIL_850_temp_075.txt.gz
Temp
14 13 13 13 13 13 13 13 14 13 12 11 10 9 9 8 7 6 6 6 5 5
14 14 14 13 13 13 13 13 13 12 10 9 9 9 9 8 7 7 6 5 5 4
14 14 14 13 13 13 13 13 13 11 10 9 9 8 8 7 7 6 6 5 4 3
14 14 14 13 12 12 13 13 12 9 9 9 8 8 8 7 6 6 5 4 4 4
15 14 13 12 12 13 12 10 10 9 9 8 8 8 7 6 6 5 4 4 4 3
15 14 13 13 12 13 12 10 9 8 8 7 7 6 6 5 4 4 4 3 2 2
15 15 14 13 12 11 11 9 9 8 7 7 6 5 5 4 4 3 3 2 1 1
15 14 13 11 11 9 9 8 8 7 6 5 5 4 4 3 2 2 1 0 0 0
11 10 10 9 9 9 8 7 6 6 5 4 4 3 3 2 1 1 -0 -0 -0 -0
10 10 9 8 8 7 6 5 5 4 4 3 2 2 1 1 0 -0 -0 -0 -0 0
8 8 8 7 6 6 5 5 5 3 2 1 1 1 0 -0 -0 -0 -0 -1 -1 -1
8 8 7 6 6 5 5 3 2 1 1 0 0 0 0 -0 -1 -1 -1 -1 -1 -2
6 5 5 5 4 3 2 2 1 1 0 -0 -0 -0 -0 -1 -1 -1 -1 -2 -2 -3
4 4 4 3 3 2 1 1 1 1 0 -0 -1 -1 -1 -1 -2 -2 -2 -2 -3 -4

GFSNIL_850_temp_081.txt.gz
Temp
12 12 12 12 12 12 13 13 13 13 12 12 11 11 11 11 10 10 9 9 9 8
11 11 11 12 12 12 12 12 12 12 12 12 12 12 10 10 11 10 9 9 8 8
12 11 12 12 12 12 12 11 11 11 12 12 12 11 10 10 10 9 9 8 8 7
12 12 12 12 12 12 12 12 13 11 11 10 9 10 10 10 9 9 8 8 7 7
12 12 13 13 13 13 13 12 13 11 10 10 9 8 8 9 9 9 8 7 7 6
13 13 13 13 13 13 12 12 12 11 10 11 10 9 9 9 8 8 7 7 6 5
14 14 14 13 13 12 12 10 12 13 10 11 10 9 8 8 8 7 6 6 5 4
13 13 12 12 12 12 11 10 10 10 9 10 9 9 8 7 7 6 5 4 3 3
12 12 12 12 10 10 10 10 9 9 9 9 8 8 7 6 5 5 4 3 3 2
13 12 12 11 10 10 9 9 9 9 8 8 8 7 5 5 4 4 3 2 1 0
11 10 9 9 9 9 9 8 8 8 8 7 6 5 4 4 2 2 1 1 -0 -0
9 9 10 9 9 8 8 7 7 6 6 5 4 3 3 2 2 1 0 -0 -1 -1
8 8 8 8 7 7 6 6 5 4 3 3 2 1 1 1 -0 -1 -1 -1 -2 -2
7 7 7 6 6 5 5 4 3 2 2 1 1 1 -0 -1 -1 -2 -2 -3 -3 -4

GFSNIL_850_temp_084.txt.gz
Temp
10 9 10 10 10 10 11 11 11 11 11 12 12 12 12 11 11 10 10 10 10 10
11 10 10 10 10 10 11 12 12 12 12 12 12 11 11 11 11 11 9 10 10 10
13 12 12 12 12 12 12 12 12 11 11 11 11 11 11 11 10 9 9 9 9 9
13 12 12 12 12 12 12 11 11 11 11 10 10 10 10 10 9 10 9 9 8 9
14 13 12 12 12 12 12 12 11 11 11 10 10 11 10 9 9 10 10 9 8 8
12 12 13 12 12 12 12 12 11 11 10 10 10 10 11 9 9 10 9 8 8 7
14 14 14 14 13 13 12 11 11 11 10 10 10 10 10 10 10 9 8 8 8 6
14 14 13 13 12 12 12 11 10 10 9 9 9 9 9 9 9 8 8 7 6 6
13 13 13 12 11 11 10 10 9 9 9 10 9 9 9 9 8 7 7 6 5 4
12 12 12 11 11 10 10 10 9 9 9 8 8 8 8 8 7 7 5 4 3 3
12 10 10 10 9 9 9 9 9 9 9 8 8 7 7 7 5 4 3 2 2 0
10 9 9 9 9 9 8 8 8 8 7 6 5 4 4 4 4 2 2 1 -0 -1
9 8 9 8 8 8 7 7 6 6 5 4 4 2 2 1 1 0 -1 -1 -2 -3
7 7 7 6 6 6 6 5 5 4 3 2 2 1 1 -0 -1 -1 -2 -3 -4 -4

GFSNIL_850_temp_087.txt.gz
Temp
9 10 10 10 10 10 10 10 10 10 10 11 11 11 11 11 11 11 11 10 10 9
10 10 10 10 10 10 10 10 10 10 11 11 11 11 11 11 11 10 10 10 10 9
11 10 10 10 10 10 10 10 11 11 11 11 11 11 11 10 11 10 11 10 10 9
13 12 11 11 12 12 11 11 11 11 11 11 11 11 10 8 9 10 10 10 9 9
14 13 13 14 14 13 13 13 13 12 12 12 11 10 10 9 9 9 9 8 8 9
13 13 13 13 13 13 13 13 12 12 11 11 10 10 9 9 9 9 9 8 8 8
14 14 14 13 13 12 12 12 12 11 11 11 10 10 9 9 9 9 9 8 7 8
13 13 13 12 12 12 11 11 10 10 10 10 9 9 9 9 9 9 8 8 7 7
13 12 12 12 11 11 11 10 9 10 9 9 10 9 9 9 9 8 8 8 7 6
12 12 11 10 10 9 9 10 10 9 9 9 9 9 8 8 8 7 7 5 5 5
11 11 10 9 9 9 9 9 9 9 9 8 8 8 8 7 6 5 4 4 3 2
9 9 9 9 9 9 8 8 8 8 7 7 6 5 4 4 4 3 2 2 0 -0
8 8 9 8 8 8 8 7 7 6 5 4 4 2 2 2 2 2 1 -0 -1 -1
8 8 7 7 7 7 6 5 5 4 3 2 2 1 1 0 -0 -1 -1 -2 -3 -4

GFSNIL_850_temp_093.txt.gz
Temp
9 9 9 9 9 9 9 9 9 10 10 9 10 10 9 10 11 11 10 10 11 10
9 9 9 9 9 9 10 10 10 10 10 10 10 10 10 11 11 10 10 10 10 10
9 9 9 10 10 9 10 10 10 11 10 11 10 10 10 10 10 10 10 10 10 10
9 9 10 10 10 10 10 10 10 10 10 10 10 10 9 10 10 10 10 10 10 10
10 10 9 10 10 10 10 10 10 10 10 10 9 10 10 10 10 9 9 10 10 10
11 10 10 10 10 10 10 10 10 10 10 10 10 10 10 9 9 10 9 9 9 10
11 11 11 10 10 10 10 10 10 10 10 10 10 10 10 10 10 9 9 9 9 9
11 11 11 10 10 10 10 10 10 10 10 9 9 9 9 9 9 9 9 9 9 9
12 11 11 10 10 10 10 9 9 9 9 9 9 9 9 9 9 9 9 8 8 8
12 11 11 10 10 10 10 9 9 9 9 9 9 9 9 9 9 8 8 8 7 6
12 12 11 11 10 10 10 9 9 9 9 9 9 8 8 8 8 7 6 5 4 3
11 11 11 10 9 9 9 9 8 8 8 7 7 7 6 7 5 5 4 2 1 -0
10 10 9 9 8 8 8 8 8 7 6 5 5 3 3 3 3 2 1 -0 -1 -2
8 8 8 8 8 8 7 6 5 5 3 3 2 1 0 -0 0 -0 -1 -2 -2 -3

GFSNIL_850_temp_096.txt.gz
Temp
9 9 9 9 9 8 8 8 8 8 9 9 9 9 9 11 11 11 11 11 11 11
9 9 8 8 9 9 8 8 9 9 9 9 10 9 11 11 11 11 11 10 11 11
9 10 10 10 9 9 9 9 9 9 9 9 9 9 11 11 10 11 11 11 10 11
10 10 10 10 10 9 10 10 9 10 10 9 9 10 10 10 10 10 11 10 11 11
9 10 10 10 10 10 9 9 10 9 9 10 10 10 10 10 10 10 10 10 10 10
9 10 9 10 10 10 10 11 10 11 10 10 10 10 10 10 10 10 10 10 9 9
10 10 10 10 10 10 10 10 10 10 10 10 10 10 10 10 10 10 9 9 9 9
12 11 10 11 10 10 10 10 10 10 10 10 10 10 10 10 10 9 9 9 9 9
11 11 11 10 10 10 10 10 10 10 10 10 10 10 9 9 9 10 9 9 9 8
12 11 11 11 11 10 10 10 10 10 9 10 9 9 9 9 9 9 9 8 7 7
12 12 11 11 10 10 10 10 10 9 9 9 9 9 9 9 9 8 7 6 4 3
13 12 11 11 10 10 10 10 9 9 8 8 8 8 8 8 7 5 4 2 1 0
13 12 12 11 11 10 9 9 8 8 6 6 6 4 4 4 3 2 1 -0 -1 -1
13 12 12 11 9 9 8 8 7 6 4 3 2 1 0 0 0 -0 -1 -1 -2 -2

GFSNIL_850_temp_102.txt.gz
Temp
10 9 9 10 10 10 9 9 9 10 10 9 9 8 9 9 9 10 11 10 11 11
10 10 9 9 10 10 9 9 9 8 8 8 9 8 8 8 9 9 10 10 10 11
9 9 10 9 9 9 9 9 8 8 9 9 9 9 9 9 9 9 10 10 10 10
10 10 9 9 9 9 9 8 10 10 10 9 9 9 8 8 9 9 10 10 10 10
10 10 9 9 10 9 9 9 10 10 10 9 9 9 8 9 9 9 9 9 10 10
9 9 9 9 10 10 10 10 10 10 10 9 9 9 9 9 9 10 10 9 10 9
9 9 9 9 10 9 10 10 10 10 10 10 10 9 9 9 9 9 9 9 9 9
9 9 9 9 10 10 10 10 10 10 10 9 9 9 9 9 9 9 9 10 9 9
13 11 9 9 9 9 9 9 10 9 9 9 9 9 9 9 9 9 9 9 8 9
13 13 12 11 9 9 9 9 9 9 10 10 9 10 10 9 8 8 9 9 9 9
12 13 12 11 10 9 9 9 9 9 10 9 10 9 9 9 9 9 9 8 8 7
11 12 12 12 11 10 9 9 9 9 9 9 9 9 9 9 8 8 8 7 4 1
11 11 11 11 11 10 9 9 9 9 9 9 9 9 8 8 8 7 4 -0 -1 -1
11 10 10 11 10 10 10 10 9 9 8 7 6 6 5 5 6 5 1 -2 -3 -4

GFSNIL_850_temp_105.txt.gz
Temp
10 10 10 10 10 10 10 10 10 9 9 9 10 10 10 10 10 10 10 10 10 11
10 9 9 10 10 10 10 10 10 9 9 9 9 9 9 9 9 9 9 9 9 9
10 10 9 9 10 10 10 10 9 9 9 9 9 9 9 8 8 8 9 9 9 9
10 9 9 9 9 9 9 10 9 9 9 9 9 9 9 9 8 8 8 8 8 9
10 9 9 9 9 8 9 8 9 9 9 9 9 10 9 9 9 9 8 8 8 9
9 9 9 9 9 9 9 8 8 8 9 10 9 9 9 9 9 9 8 9 9 9
9 9 9 9 9 9 9 8 8 8 8 9 9 9 9 9 9 9 9 9 9 9
9 9 9 9 9 9 9 9 9 9 9 9 8 9 9 9 9 9 9 9 9 9
8 9 9 9 8 8 9 9 9 9 9 9 9 9 9 9 8 8 9 8 8 8
11 10 8 8 8 8 8 9 10 10 10 10 9 9 9 8 8 8 8 8 8 8
13 12 10 9 8 9 9 8 9 9 9 9 9 9 9 9 8 8 8 7 8 8
12 11 10 9 9 9 8 9 9 8 9 9 9 10 9 10 8 8 8 7 7 5
10 10 11 10 9 9 9 8 8 8 8 8 8 8 8 8 8 8 7 6 2 -0
10 10 10 10 10 10 9 9 8 8 8 8 8 8 8 8 7 7 5 0 -3 -4

GFSNIL_850_temp_108.txt.gz
Temp
9 10 10 10 10 10 10 10 11 11 10 10 10 11 11 11 11 11 11 10 10 10
9 10 10 9 10 10 10 11 10 11 11 10 9 9 9 10 10 10 10 9 9 9
10 9 10 10 10 10 10 10 10 10 10 9 9 9 9 9 9 9 9 9 9 9
9 9 9 9 9 10 10 10 10 9 9 9 9 9 8 8 8 9 8 9 8 9
9 9 9 9 9 10 9 9 10 9 10 9 8 8 8 8 8 8 8 8 8 9
9 9 9 9 9 8 9 9 9 9 9 9 9 9 8 8 9 8 9 8 8 8
9 9 9 8 8 8 8 9 9 9 9 9 9 9 9 9 9 9 9 9 8 8
10 9 9 9 8 8 8 8 8 8 8 8 8 9 9 8 8 9 8 8 8 7
10 10 8 9 9 8 8 8 8 8 8 8 8 9 8 8 8 8 8 8 8 8
10 10 10 9 9 8 8 8 8 8 8 8 8 8 8 8 8 7 8 8 8 8
10 10 9 9 8 8 8 8 8 8 8 8 8 7 7 7 7 7 7 7 7 7
10 10 9 9 10 9 8 8 7 8 8 8 8 8 8 8 7 7 7 7 7 6
10 9 10 10 9 10 9 9 8 7 7 8 8 8 8 8 8 7 7 6 5 4
9 9 9 10 10 9 9 9 9 8 8 8 8 8 8 8 8 8 7 4 1 -1

GFSNIL_850_temp_111.txt.gz
Temp
10 10 10 9 10 10 10 9 9 10 10 10 10 10 10 11 11 10 10 11 11 11
9 9 9 10 10 9 9 9 9 9 10 10 10 10 11 11 10 10 10 10 10 10
9 9 9 10 9 10 9 9 9 10 10 10 10 10 10 10 10 10 10 10 10 10
10 9 9 10 9 10 9 9 10 10 10 10 11 10 9 10 10 10 10 10 10 10
9 9 9 9 9 9 9 9 9 10 10 10 10 10 10 9 9 9 9 10 9 9
9 9 9 9 9 9 9 9 9 9 9 9 9 10 9 9 9 9 9 9 9 9
9 9 9 9 9 9 9 9 9 9 9 9 9 9 9 9 8 8 8 8 8 8
10 9 9 9 9 9 9 9 9 9 8 8 9 8 8 9 8 8 8 7 8 8
10 9 9 8 8 9 9 8 9 8 8 8 8 8 8 8 8 8 8 8 8 8
9 9 9 9 8 8 8 9 9 8 8 8 8 8 8 8 8 8 8 7 7 7
9 9 9 9 8 8 8 8 8 8 8 8 8 8 8 8 7 7 7 7 6 6
8 9 9 9 9 8 8 8 8 8 8 8 7 8 8 7 7 7 7 6 6 6
9 8 9 9 9 10 9 8 7 8 8 8 8 8 8 8 7 7 7 6 6 6
7 7 7 8 9 9 9 9 8 7 7 8 8 8 8 8 8 8 7 6 5 4

GFSNIL_850_temp_117.txt.gz
Temp
13 12 12 11 12 11 11 11 11 11 10 10 10 10 10 10 10 10 9 10 11 11
12 12 11 11 11 11 11 11 11 10 10 10 10 10 10 10 10 10 9 10 10 10
11 11 11 11 11 10 11 10 10 10 10 9 9 9 9 9 9 10 9 9 10 9
11 11 10 11 10 11 11 11 11 10 9 8 8 8 9 9 9 9 9 9 9 10
10 10 10 10 10 10 10 10 10 9 8 8 8 8 8 8 8 9 9 9 9 9
10 10 10 10 10 10 10 10 10 9 8 8 9 8 8 8 8 8 9 9 9 9
9 9 9 10 10 10 10 9 10 9 8 8 9 9 9 8 8 9 9 10 10 10
9 9 10 10 10 9 9 10 9 9 9 9 9 9 9 9 9 8 10 10 10 10
9 9 10 9 9 9 9 9 9 9 9 9 9 9 9 9 9 9 9 8 8 9
9 9 9 9 9 9 9 9 9 9 9 9 9 9 9 8 8 9 9 8 8 8
8 9 9 9 9 9 9 9 9 9 9 9 9 9 9 8 8 9 9 9 9 8
6 8 9 9 9 9 9 9 9 8 8 8 8 9 8 8 8 8 8 8 8 8
5 7 8 8 9 8 8 8 9 8 8 8 8 8 8 8 8 8 8 8 8 8
5 6 7 8 8 9 9 8 8 8 9 8 8 8 8 8 8 8 7 7 7 7

GFSNIL_850_temp_120.txt.gz
Temp
14 14 15 14 13 12 12 11 11 11 11 11 11 11 10 10 10 10 10 10 10 11
13 14 13 13 13 12 12 11 11 11 11 11 11 10 11 10 10 10 10 10 10 10
12 13 12 12 12 12 12 11 11 11 11 10 10 10 10 10 10 10 10 10 10 9
12 12 12 11 11 11 11 11 11 11 10 11 10 10 9 9 9 9 10 10 10 9
11 11 11 11 11 10 10 10 11 10 10 10 9 9 9 9 9 9 9 10 10 9
11 10 10 10 10 10 10 10 10 10 9 9 9 9 8 8 8 9 9 9 9 10
10 10 10 10 10 10 10 9 10 9 9 8 8 9 8 8 8 8 9 9 9 9
9 9 9 10 10 10 10 9 9 9 9 8 8 9 9 8 8 8 9 9 9 9
9 9 10 10 10 10 10 10 10 9 9 8 8 8 9 8 8 8 9 9 9 8
9 9 9 9 9 9 9 10 10 10 9 8 8 9 9 8 8 8 9 8 8 8
8 9 10 9 9 9 9 9 10 10 10 9 9 9 9 8 8 9 8 8 9 8
5 6 8 9 9 9 9 9 9 9 9 10 9 9 9 8 8 8 7 7 8 8
6 6 6 7 8 9 9 9 9 9 9 9 9 9 8 8 8 8 7 7 7 7
4 5 5 5 8 9 9 8 9 8 8 8 8 8 8 8 8 8 8 8 7 7

GFSNIL_850_temp_123.txt.gz
Temp
15 15 14 14 14 13 13 12 11 11 11 11 11 11 11 11 10 11 10 10 9 10
15 14 14 14 14 14 13 12 12 11 11 11 11 11 11 10 10 10 10 10 10 10
13 14 13 13 13 13 13 12 12 11 11 11 11 10 10 10 10 10 10 10 10 10
13 13 13 13 13 12 12 12 11 11 11 10 10 10 10 10 10 10 10 10 10 10
12 12 12 12 12 12 11 11 11 11 11 10 10 9 9 9 9 10 9 10 10 10
11 12 11 11 11 11 11 10 10 10 10 10 10 10 9 8 9 9 9 9 10 10
11 11 11 11 11 10 11 10 9 9 9 9 9 8 9 8 8 8 9 9 9 10
10 10 10 10 10 10 10 10 9 9 8 8 8 8 9 9 8 8 8 8 9 9
9 9 9 9 9 10 10 10 10 9 9 8 8 8 8 9 8 8 8 9 9 9
8 9 9 10 10 10 10 10 10 10 9 8 8 8 8 9 8 8 8 9 9 9
7 8 9 9 9 10 10 10 10 10 9 9 10 9 9 8 8 8 8 8 8 8
6 6 7 8 9 9 9 9 9 9 9 10 9 9 8 8 8 8 7 7 8 8
5 5 6 7 7 9 9 9 9 9 9 9 9 8 8 8 8 7 7 7 7 7
4 4 5 5 6 7 9 9 9 9 9 9 8 8 8 8 8 8 7 7 7 7

GFSNIL_850_temp_129.txt.gz
Temp
17 18 19 18 18 17 16 15 14 14 13 13 12 12 12 11 11 11 12 11 11 12
18 19 19 18 17 16 15 15 14 13 13 12 12 12 11 11 11 11 11 11 11 11
17 18 17 16 16 15 15 14 14 14 12 12 11 11 11 11 11 11 11 11 11 11
15 15 15 15 15 14 14 14 14 13 12 12 11 11 10 10 11 11 11 10 10 11
13 13 14 14 14 13 14 13 13 13 12 12 11 11 11 11 11 10 10 11 10 10
11 12 12 13 13 13 14 13 13 12 12 12 11 10 10 10 10 10 10 10 10 10
11 11 11 11 12 13 13 12 12 12 11 12 11 10 10 9 9 9 9 9 9 9
9 10 10 10 11 11 11 12 11 11 11 10 10 9 9 9 9 8 8 8 9 9
9 9 10 10 10 10 10 10 10 10 10 10 10 9 9 9 8 8 8 8 8 7
7 8 9 9 10 10 10 10 10 10 10 10 10 9 9 8 7 8 8 8 8 8
5 7 7 8 9 9 9 10 10 10 10 10 10 9 8 8 7 8 7 7 8 8
4 5 6 6 7 8 9 9 9 9 9 9 9 9 9 8 8 8 8 8 7 8
3 4 5 5 6 7 7 8 9 9 9 9 8 8 9 8 8 8 8 8 8 8
0 1 3 4 5 6 6 7 7 8 8 9 9 8 9 8 8 8 8 8 8 7

GFSNIL_850_temp_132.txt.gz
Temp
15 16 16 17 18 18 20 19 18 15 14 14 13 13 13 12 12 12 12 12 12 12
14 15 14 15 16 17 19 18 17 15 15 14 13 13 12 12 12 12 11 11 12 12
14 14 16 16 17 18 17 17 16 15 14 14 13 12 12 12 12 11 11 11 11 12
16 15 15 16 17 17 17 16 15 15 13 13 12 12 11 11 11 11 11 11 11 11
15 16 14 14 15 15 15 15 14 14 14 13 12 12 11 11 11 10 10 11 11 11
13 13 13 13 14 14 14 14 14 13 12 13 13 12 12 11 11 11 11 10 10 10
11 12 11 13 14 14 14 13 13 13 13 13 13 12 12 11 11 10 10 10 10 10
9 10 11 11 11 11 11 12 13 13 12 12 11 11 11 11 10 10 10 9 10 9
8 9 9 9 10 10 11 10 11 11 12 11 11 10 10 9 9 9 9 8 8 8
6 7 8 9 9 10 10 10 10 11 10 10 10 10 9 9 9 8 8 7 7 8
5 6 6 7 8 9 10 9 10 10 10 9 9 9 8 8 8 8 7 7 8 7
2 4 6 6 7 7 8 8 9 9 9 9 9 9 8 8 8 8 8 7 8 7
-0 1 3 4 6 6 7 7 8 8 8 9 9 9 8 8 8 8 8 8 8 8
-0 0 1 2 4 5 6 6 7 7 7 8 8 8 8 8 8 8 8 8 8 8

GFSNIL_850_temp_135.txt.gz
Temp
18 15 15 17 19 18 16 19 19 18 16 15 15 14 14 13 13 13 13 13 13 12
16 13 13 15 14 15 16 16 17 17 17 16 15 14 14 13 13 13 13 12 12 12
14 13 13 13 13 13 14 16 16 15 15 15 15 14 14 13 13 13 12 12 12 11
13 13 13 13 13 13 13 14 14 16 16 15 15 14 14 13 12 12 12 12 12 11
13 13 12 13 14 15 15 13 13 14 15 15 15 14 13 12 12 12 12 12 11 11
12 11 11 11 12 12 13 13 13 13 13 14 14 14 13 12 12 11 11 11 11 11
11 10 10 12 13 13 13 14 14 12 12 13 13 13 13 12 12 11 11 11 11 11
9 9 10 10 12 13 12 12 12 12 13 13 13 12 12 12 11 11 11 11 10 10
7 7 8 9 10 10 11 11 12 12 12 13 13 12 11 11 11 10 10 10 10 10
6 7 7 8 9 9 10 10 10 10 11 11 11 11 10 10 10 10 9 9 9 8
3 4 5 6 7 8 9 10 10 9 10 10 10 10 10 10 9 9 8 8 8 8
0 2 4 6 7 7 7 8 9 9 9 10 10 9 9 9 9 8 8 8 8 7
-1 0 2 4 5 5 6 8 8 8 8 9 9 9 9 8 8 8 8 8 8 8
-0 -0 1 1 3 3 4 5 6 6 7 7 8 8 8 8 8 8 8 8 8 8

GFSNIL_850_temp_138.txt.gz
Temp
14 15 15 16 20 14 14 18 20 19 18 18 17 17 16 15 15 14 14 12 12 12
14 15 15 15 15 14 13 14 17 18 17 17 17 16 16 15 14 14 14 13 13 12
15 14 15 15 14 14 14 13 13 13 14 15 15 15 15 15 14 14 14 13 13 13
13 14 14 14 13 13 14 13 13 13 13 13 13 15 16 15 14 14 14 13 13 13
13 12 13 14 13 13 13 13 13 13 13 13 13 16 16 15 15 14 14 13 13 12
11 11 12 13 13 12 12 13 13 13 13 13 13 14 14 14 14 14 13 13 12 12
9 10 10 10 11 12 11 12 12 12 12 12 13 13 13 14 13 13 13 12 12 11
8 8 8 10 10 10 11 11 12 12 12 12 13 13 13 12 12 12 12 12 12 11
7 9 8 9 9 10 10 10 12 12 12 12 12 12 13 13 12 12 12 11 11 11
7 7 6 8 9 10 10 10 10 11 11 11 12 12 11 11 11 11 10 10 10 10
1 2 4 5 6 8 9 9 10 10 10 10 10 10 10 10 10 10 10 10 9 9
0 1 2 3 4 6 7 8 8 9 9 9 9 9 9 9 9 10 10 9 9 9
-0 0 1 1 2 3 4 5 6 7 8 8 8 9 9 9 9 9 9 9 9 8
-0 0 0 1 1 2 2 3 4 5 6 6 7 8 9 9 8 9 8 8 8 8

GFSNIL_850_temp_141.txt.gz
Temp
13 14 15 15 13 14 14 14 13 13 13 14 14 16 15 15 15 14 14 14 13 13
13 13 15 14 14 14 15 14 13 13 13 13 13 14 14 15 16 15 14 14 13 13
13 14 15 14 15 14 16 16 15 13 13 13 13 13 12 14 14 15 14 14 13 13
13 14 15 15 15 12 13 14 14 13 13 13 13 13 13 13 13 13 14 14 13 14
10 11 15 14 14 14 14 14 14 14 13 13 13 13 13 13 14 13 13 15 14 14
9 11 12 13 14 14 13 14 14 13 13 13 13 12 13 13 13 13 15 15 15 14
8 8 9 11 11 12 13 12 13 13 13 13 13 13 13 13 13 13 13 14 14 14
5 7 8 10 10 10 11 11 12 12 12 12 12 12 13 13 13 13 13 13 13 13
4 5 6 7 9 8 10 11 10 10 11 10 10 11 11 12 12 12 13 13 13 12
2 2 3 5 8 7 8 9 10 10 11 10 10 11 11 10 11 11 12 12 13 13
3 -0 0 3 8 4 8 8 9 10 10 9 10 11 11 10 10 10 10 11 11 11
-1 -2 0 4 2 2 4 5 7 8 8 8 9 10 10 10 9 10 10 10 10 10
-3 -1 -0 0 0 1 1 2 3 4 6 9 7 9 10 9 9 9 10 9 9 9
-4 -3 -2 -1 1 2 1 2 2 2 2 4 6 7 8 8 8 8 8 8 8 8